sat.trackr.live / text

‹ back to catalog

STARLINK-36169

NORAD 66929 · 2025-286E

PAYLOAD ACTIVE UNKNOWN

§ Identity

Operator
Country
US
Launch date
2025-12-07
Launch site
AFWTR
Launch vehicle
Mass (kg)
RCS (m²)

Purposes: comms

External: N2YO · Heavens-Above · Gunter

§ Orbital elements

Epoch: 2026-05-24T21:42:39.680352Z

Period
93.85 min
Inclination
53.1593°
Eccentricity
0.0000882
Mean motion
15.34388777 rev/d
Perigee alt
462.1 km
Apogee alt
463.3 km
Semi-major
6,840.9 km
B*
2.3747e-4
RAAN
3.8732°
Arg perigee
89.2684°
Mean anomaly
270.8420°
Rev number
2,709

§ Raw data

STARLINK-361691 66929U 25286E   26144.90462593  .00007653  00000+0  23747-3 0  99962 66929  53.1593   3.8732 0000882  89.2684 270.8420 15.34388777 27092

JSON: /api/v1/satellites/66929 · /tle

For live sub-satellite position, see the globe view (requires WebGL).

§ Visibility from observer

Set your observer location to see the next 7 days of passes ≥ 10°. The values pass through the URL so the page stays shareable.

No JS? Fill the form by hand. The geolocation button needs JavaScript.